Weather History for KORB - March, 2013

Change the Weather History Date:

Friday, March 15, 2013

  Actual Average Record
Temperature  
Mean Temperature 18 °F -  
Max Temperature 28 °F 31 °F 64 °F (2015)
Min Temperature 8 °F 9 °F -7 °F (1997)
Degree Days  
Heating Degree Days 47    
Moisture  
Dew Point 6 °F    
Average Humidity 64    
Maximum Humidity 85    
Minimum Humidity 33    
Precipitation  
Precipitation 0.00 in - - ()
Sea Level Pressure  
Sea Level Pressure 29.99 in    
Wind  
Wind Speed 2 mph (North)    
Max Wind Speed 6 mph    
Max Gust Speed -    
Visibility 8 miles    
Events Snow    
Averages and records for this station are not official NWS values.
T = Trace of Precipitation, MM = Missing Value Source: NWS Daily Summary

Daily Weather History Graph

Daily Weather History Graph

Search for Another Location

Airport or City:

Trip Planner

Search our weather history database for the weather conditions in past years. The results will help you decide how hot, cold, wet, or windy it might be!

Date:

Astronomy

Mar. 15, 2013 Rise Set
Actual Time 7:23 AM CDT 7:17 PM CDT
Civil Twilight 6:53 AM CDT 7:48 PM CDT
Nautical Twilight 6:16 AM CDT 8:24 PM CDT
Astronomical Twilight 5:39 AM CDT 9:01 PM CDT
Moon 8:54 AM CDT (3/15) 11:53 PM CDT (3/15)
Length of Visible Light 12h 55m
Length of Day
11h 53m
Waxing Crescent, 15% of the Moon is Illuminated
Mar 15
Waxing Crescent
Mar 19
First Quarter
Mar 27
Full
Apr 2
Last Quarter
Apr 10
New

Hourly Weather History & Observations

Time (CDT) Temp. Windchill Dew Point Humidity Pressure Visibility Wind Dir Wind Speed Gust Speed Precip Events Conditions
12:13 AM 28.4 °F 24.6 °F 23.0 °F 80% 29.96 in 10.0 mi NNW 3.5 mph - N/A   Overcast
12:33 AM 28.4 °F 24.6 °F 21.2 °F 74% 29.96 in 10.0 mi North 3.5 mph - N/A   Overcast
12:53 AM 26.6 °F 22.6 °F 19.4 °F 74% 29.96 in 10.0 mi NNW 3.5 mph - N/A   Overcast
1:13 AM 26.6 °F 21.2 °F 19.4 °F 74% 29.96 in 10.0 mi NNW 4.6 mph - N/A   Overcast
1:34 AM 26.6 °F 21.2 °F 17.6 °F 69% 29.96 in 10.0 mi NNW 4.6 mph - N/A   Overcast
1:53 AM 26.6 °F - 17.6 °F 69% 29.97 in 10.0 mi Calm Calm - N/A   Overcast
2:13 AM 24.8 °F 19.1 °F 17.6 °F 74% 29.97 in 10.0 mi NNW 4.6 mph - N/A   Overcast
2:33 AM 24.8 °F 20.5 °F 15.8 °F 69% 29.96 in 10.0 mi North 3.5 mph - N/A   Overcast
2:53 AM 24.8 °F 20.5 °F 15.8 °F 69% 29.97 in 10.0 mi NNW 3.5 mph - N/A   Mostly Cloudy
3:13 AM 24.8 °F - 15.8 °F 69% 29.97 in 10.0 mi Calm Calm - N/A   Mostly Cloudy
3:33 AM 23.0 °F 17.0 °F 15.8 °F 74% 29.97 in 10.0 mi North 4.6 mph - N/A   Overcast
3:53 AM 23.0 °F - 15.8 °F 74% 29.98 in 10.0 mi Calm Calm - N/A   Overcast
4:13 AM 21.2 °F - 14.0 °F 74% 29.98 in 10.0 mi Calm Calm - N/A   Mostly Cloudy
4:33 AM 21.2 °F - 14.0 °F 74% 29.98 in 10.0 mi Calm Calm - N/A   Scattered Clouds
4:53 AM 21.2 °F - 14.0 °F 74% 29.99 in 10.0 mi Calm Calm - N/A   Mostly Cloudy
5:13 AM 21.2 °F 13.6 °F 14.0 °F 74% 30.00 in 10.0 mi NNE 5.8 mph - N/A   Overcast
5:33 AM 19.4 °F - 12.2 °F 74% 30.00 in 10.0 mi Calm Calm - N/A   Overcast
5:53 AM 17.6 °F 12.3 °F 12.2 °F 79% 30.01 in 10.0 mi North 3.5 mph - N/A   Scattered Clouds
6:14 AM 17.6 °F 12.3 °F 10.4 °F 73% 30.01 in 10.0 mi North 3.5 mph - N/A   Clear
6:33 AM 17.6 °F - 8.6 °F 68% 30.01 in 10.0 mi Calm Calm - N/A   Clear
6:53 AM 15.8 °F - 8.6 °F 73% 30.01 in 10.0 mi Calm Calm - N/A   Clear
7:13 AM 15.8 °F - 6.8 °F 68% 30.02 in 10.0 mi Calm Calm - N/A   Clear
7:33 AM 14.0 °F - 6.8 °F 73% 30.03 in 10.0 mi Calm Calm - N/A   Clear
7:53 AM 12.2 °F - 6.8 °F 79% 30.04 in 10.0 mi Calm Calm - N/A   Mostly Cloudy
8:24 AM 12.2 °F - 6.8 °F 79% 30.04 in 10.0 mi Calm Calm - N/A   Scattered Clouds
8:33 AM 12.2 °F 6.1 °F 6.8 °F 79% 30.03 in 10.0 mi North 3.5 mph - N/A   Scattered Clouds
8:53 AM 12.2 °F - 6.8 °F 79% 30.03 in 5.0 mi Calm Calm - N/A Snow Light Snow
9:14 AM 12.2 °F 6.1 °F 6.8 °F 79% 30.03 in 10.0 mi North 3.5 mph - N/A Snow Light Snow
9:33 AM 12.2 °F - 6.8 °F 79% 30.02 in 10.0 mi Calm Calm - N/A   Scattered Clouds
9:53 AM 15.8 °F 8.6 °F 5.0 °F 62% 30.02 in 10.0 mi ENE 4.6 mph - N/A   Overcast
10:13 AM 15.8 °F 10.2 °F 3.2 °F 58% 30.02 in 10.0 mi NNE 3.5 mph - N/A   Overcast
10:33 AM 15.8 °F 8.6 °F 3.2 °F 58% 30.01 in 10.0 mi NE 4.6 mph - N/A   Overcast
10:53 AM 17.6 °F - 3.2 °F 53% 30.02 in 10.0 mi Calm Calm - N/A   Overcast
11:13 AM 17.6 °F 10.7 °F 1.4 °F 49% 30.02 in 10.0 mi NNE 4.6 mph - N/A   Overcast
11:33 AM 17.6 °F 9.3 °F 1.4 °F 49% 30.02 in 10.0 mi NNW 5.8 mph - N/A   Overcast
11:53 AM 17.6 °F 9.3 °F -0.4 °F 45% 30.02 in 10.0 mi NE 5.8 mph - N/A   Overcast
12:13 PM 17.6 °F - -2.2 °F 42% 30.01 in 10.0 mi Calm Calm - N/A   Mostly Cloudy
12:33 PM 17.6 °F 10.7 °F -4.0 °F 38% 30.00 in 10.0 mi East 4.6 mph - N/A   Scattered Clouds
12:53 PM 19.4 °F 14.3 °F -2.2 °F 39% 30.00 in 10.0 mi NE 3.5 mph - N/A   Scattered Clouds
1:13 PM 19.4 °F 14.3 °F -2.2 °F 39% 30.00 in 10.0 mi WNW 3.5 mph - N/A   Mostly Cloudy
1:33 PM 19.4 °F 14.3 °F -4.0 °F 36% 29.99 in 10.0 mi North 3.5 mph - N/A   Overcast
1:54 PM 19.4 °F 11.5 °F -4.0 °F 36% 29.98 in 10.0 mi NNE 5.8 mph - N/A   Mostly Cloudy
2:14 PM 19.4 °F 12.8 °F -5.8 °F 33% 29.98 in 10.0 mi NE 4.6 mph - N/A   Scattered Clouds
2:33 PM 19.4 °F 14.3 °F -5.8 °F 33% 29.97 in 10.0 mi North 3.5 mph - N/A   Scattered Clouds
2:54 PM 19.4 °F 14.3 °F -5.8 °F 33% 29.96 in 10.0 mi North 3.5 mph - N/A   Scattered Clouds
3:13 PM 19.4 °F 14.3 °F -5.8 °F 33% 29.96 in 10.0 mi North 3.5 mph - N/A   Clear
3:33 PM 19.4 °F 14.3 °F -5.8 °F 33% 29.96 in 10.0 mi North 3.5 mph - N/A   Clear
3:54 PM 19.4 °F - -4.0 °F 36% 29.96 in 10.0 mi Calm Calm - N/A   Scattered Clouds
4:14 PM 19.4 °F - -4.0 °F 36% 29.96 in 10.0 mi Calm Calm - N/A   Mostly Cloudy
4:33 PM 17.6 °F - -4.0 °F 38% 29.97 in 10.0 mi Calm Calm - N/A   Overcast
4:53 PM 17.6 °F 12.3 °F -5.8 °F 35% 29.96 in 10.0 mi NE 3.5 mph - N/A   Overcast
5:13 PM 17.6 °F 10.7 °F -5.8 °F 35% 29.96 in 10.0 mi NNE 4.6 mph - N/A   Overcast
5:33 PM 17.6 °F 10.7 °F -5.8 °F 35% 29.96 in 10.0 mi NNE 4.6 mph - N/A   Overcast
5:53 PM 15.8 °F 10.2 °F -2.2 °F 45% 29.97 in 10.0 mi NE 3.5 mph - N/A   Overcast
6:13 PM 15.8 °F - 1.4 °F 53% 29.98 in 7.0 mi Calm Calm - N/A Snow Light Snow
6:33 PM 12.2 °F 6.1 °F 5.0 °F 73% 29.98 in 1.5 mi NNE 3.5 mph - N/A   Overcast
6:53 PM 12.2 °F - 6.8 °F 79% 29.98 in 1.0 mi Calm Calm - N/A Snow Light Snow
7:14 PM 12.2 °F - 6.8 °F 79% 29.98 in 1.8 mi Calm Calm - N/A Snow Light Snow
7:33 PM 12.2 °F 6.1 °F 6.8 °F 79% 29.97 in 2.0 mi NNE 3.5 mph - N/A Snow Light Snow
7:53 PM 10.4 °F - 6.8 °F 85% 29.98 in 2.0 mi Calm Calm - N/A   Overcast
8:13 PM 10.4 °F - 6.8 °F 85% 29.98 in 3.0 mi Calm Calm - N/A   Overcast
8:33 PM 10.4 °F - 5.0 °F 79% 29.98 in 2.5 mi Calm Calm - N/A Snow Light Snow
8:53 PM 10.4 °F - 5.0 °F 79% 29.98 in 2.0 mi Calm Calm - N/A Snow Light Snow
9:13 PM 10.4 °F - 5.0 °F 79% 29.98 in 2.5 mi Calm Calm - N/A Snow Light Snow
9:33 PM 10.4 °F 4.0 °F 5.0 °F 79% 29.98 in 2.0 mi NNE 3.5 mph - N/A Snow Light Snow
9:53 PM 8.6 °F - 5.0 °F 85% 29.99 in 2.5 mi Calm Calm - N/A Snow Light Snow
10:13 PM 8.6 °F - 5.0 °F 85% 30.00 in 2.5 mi Calm Calm - N/A Snow Light Snow
10:33 PM 8.6 °F - 3.2 °F 79% 30.00 in 4.0 mi Calm Calm - N/A Snow Light Snow
10:53 PM 8.6 °F - 3.2 °F 79% 30.01 in 3.0 mi Calm Calm - N/A   Overcast
11:13 PM 8.6 °F 2.0 °F 3.2 °F 79% 30.01 in 3.0 mi North 3.5 mph - N/A   Overcast
11:33 PM 8.6 °F - 3.2 °F 79% 30.01 in 2.5 mi Calm Calm - N/A Snow Light Snow
11:53 PM 8.6 °F - 3.2 °F 79% 30.00 in 3.0 mi Calm Calm - N/A   Overcast